This demonstration page uses our WeatherBlox Daily Observations layout. Learn more.

Hourly Observations for March 15, 2018

Temp ( °F °C ) Dew Point ( °F °C ) Humidity (%) Winds ( mph kmh ) Pressure ( in mb ) Visibility ( mi km ) Precip ( " mm )
12:15 am 00:15 Cloudy 34 1 19 -7 56 56 WNW 13 20 29.88 1012 10 16.09344 0 0
12:35 am 00:35 Partly Cloudy 34 1 19 -7 56 56 WNW 12 19 29.88 1012 10 16.09344 0 0
12:55 am 00:55 Clear 34 1 19 -7 56 56 WNW 15 24 29.88 1012 10 16.09344 0 0
1:15 am 01:15 Clear 34 1 21 -6 60 60 WNW 14 22 29.85 1011 10 16.09344 0 0
1:35 am 01:35 Mostly Cloudy 34 1 21 -6 60 60 WNW 17 28 29.85 1011 10 16.09344 0 0
1:55 am 01:55 Cloudy 34 1 21 -6 60 60 WNW 25 41 29.85 1011 10 16.09344 0 0
2:15 am 02:15 Cloudy 34 1 21 -6 60 60 WNW 25 41 29.85 1011 10 16.09344 0 0
2:35 am 02:35 Mostly Cloudy 34 1 21 -6 60 60 WNW 23 37 29.85 1011 10 16.09344 0 0
2:55 am 02:55 Clear 34 1 21 -6 60 60 WNW 23 37 29.85 1011 10 16.09344 0 0
3:15 am 03:15 Clear 34 1 21 -6 60 60 WNW 15 24 29.85 1011 10 16.09344 0 0
3:35 am 03:35 Clear 34 1 21 -6 60 60 WNW 15 24 29.83 1010 10 16.09344 0 0
3:55 am 03:55 Clear 34 1 21 -6 60 60 WNW 16 26 29.83 1010 10 16.09344 0 0
4:15 am 04:15 Clear 34 1 21 -6 60 60 WNW 13 20 29.83 1010 10 16.09344 0 0
4:35 am 04:35 Clear 32 0 21 -6 64 64 W 6 9 29.83 1010 10 16.09344 0 0
4:55 am 04:55 Clear 32 0 21 -6 64 64 W 6 9 29.83 1010 10 16.09344 0 0
5:15 am 05:15 Clear 32 0 21 -6 64 64 WSW 3 6 29.83 1010 10 16.09344 0 0
5:35 am 05:35 Clear 32 0 19 -7 60 60 S 5 7 29.83 1010 10 16.09344 0 0
5:55 am 05:55 Clear 32 0 19 -7 60 60 WSW 5 7 29.83 1010 10 16.09344 0 0
6:15 am 06:15 Clear 32 0 19 -7 60 60 SW 5 7 29.8 1009 10 16.09344 0 0
6:35 am 06:35 Clear 32 0 19 -7 60 60 SSW 5 7 29.8 1009 10 16.09344 0 0
6:55 am 06:55 Clear 32 0 19 -7 60 60 SW 7 11 29.8 1009 10 16.09344 0 0
7:15 am 07:15 Clear 32 0 19 -7 60 60 SW 7 11 29.8 1009 10 16.09344 0 0
7:35 am 07:35 Sunny 32 0 19 -7 60 60 SSW 6 9 29.8 1009 10 16.09344 0 0
7:55 am 07:55 Sunny 32 0 19 -7 60 60 SW 8 13 29.8 1009 10 16.09344 0 0
8:15 am 08:15 Sunny 34 1 21 -6 60 60 SW 6 9 29.77 1008 10 16.09344 0 0
8:35 am 08:35 Sunny 36 2 21 -6 56 56 WSW 7 11 29.77 1008 10 16.09344 0 0
8:55 am 08:55 Sunny 37 3 21 -6 52 52 SW 9 15 29.77 1008 10 16.09344 0 0
9:15 am 09:15 Partly Cloudy 37 3 21 -6 52 52 SW 8 13 29.77 1008 10 16.09344 0 0
9:35 am 09:35 Partly Cloudy 41 5 21 -6 45 45 WSW 13 20 29.77 1008 10 16.09344 0 0
9:55 am 09:55 Sunny 41 5 21 -6 45 45 SW 12 19 29.74 1007 10 16.09344 0 0
10:15 am 10:15 Sunny 43 6 21 -6 42 42 W 13 20 29.74 1007 10 16.09344 0 0
10:35 am 10:35 undefined 43 6 21 -6 42 42 SW 13 20 29.74 1007 N/A 0 0
10:55 am 10:55 Mostly Cloudy 45 7 23 -5 42 42 WSW 7 11 29.71 1006 10 16.09344 0 0
11:15 am 11:15 Cloudy 45 7 23 -5 42 42 W 12 19 29.71 1006 10 16.09344 0 0
11:35 am 11:35 Cloudy 45 7 23 -5 42 42 WSW 13 20 29.68 1005 10 16.09344 0 0
11:55 am 11:55 Cloudy 45 7 25 -4 46 46 SW 12 19 29.68 1005 10 16.09344 0 0
12:15 pm 12:15 Cloudy 46 8 27 -3 46 46 W 15 24 29.68 1005 10 16.09344 0 0
12:35 pm 12:35 Cloudy 45 7 27 -3 49 49 W 7 11 29.68 1005 10 16.09344 0 0
12:55 pm 12:55 Cloudy 50 10 30 -1 47 47 WNW 10 17 29.65 1004 10 16.09344 0 0
1:15 pm 13:15 Cloudy 52 11 30 -1 44 44 W 14 22 29.65 1004 10 16.09344 0 0
1:35 pm 13:35 Cloudy 50 10 28 -2 43 43 WNW 15 24 29.65 1004 10 16.09344 0 0
1:55 pm 13:55 Cloudy 50 10 28 -2 43 43 W 21 33 29.62 1003 10 16.09344 0 0
2:15 pm 14:15 Cloudy 50 10 28 -2 43 43 NW 20 31 29.62 1003 10 16.09344 0 0
2:35 pm 14:35 Mostly Cloudy 52 11 28 -2 41 41 NW 23 37 29.62 1003 10 16.09344 0 0
2:55 pm 14:55 Mostly Cloudy 52 11 27 -3 38 38 NW 26 43 29.62 1003 10 16.09344 0 0
3:15 pm 15:15 Mostly Cloudy 52 11 27 -3 38 38 NW 24 39 29.62 1003 10 16.09344 0 0
3:35 pm 15:35 Mostly Cloudy 52 11 27 -3 38 38 NW 25 41 29.62 1003 10 16.09344 0 0
3:55 pm 15:55 Mostly Cloudy 52 11 27 -3 38 38 NW 22 35 29.62 1003 10 16.09344 0 0
4:15 pm 16:15 Mostly Cloudy 52 11 25 -4 35 35 NW 23 37 29.62 1003 10 16.09344 0 0
4:35 pm 16:35 Cloudy 50 10 25 -4 37 37 NW 18 30 29.62 1003 10 16.09344 0 0
4:55 pm 16:55 Mostly Cloudy 52 11 27 -3 38 38 WNW 21 33 29.62 1003 10 16.09344 0 0
5:15 pm 17:15 Mostly Cloudy 52 11 27 -3 38 38 NW 25 41 29.65 1004 10 16.09344 0 0
5:35 pm 17:35 Mostly Cloudy 52 11 25 -4 35 35 NW 23 37 29.65 1004 10 16.09344 0 0
5:55 pm 17:55 Mostly Cloudy 50 10 25 -4 37 37 NW 22 35 29.65 1004 10 16.09344 0 0
6:15 pm 18:15 Cloudy 50 10 25 -4 37 37 NW 20 31 29.65 1004 10 16.09344 0 0
6:35 pm 18:35 Mostly Cloudy 50 10 25 -4 37 37 NW 17 28 29.65 1004 10 16.09344 0 0
6:55 pm 18:55 Partly Cloudy 48 9 23 -5 37 37 NW 18 30 29.68 1005 10 16.09344 0 0
7:15 pm 19:15 Sunny 46 8 23 -5 40 40 NNW 12 19 29.68 1005 10 16.09344 0 0
7:35 pm 19:35 Clear 45 7 23 -5 42 42 NNW 9 15 29.68 1005 10 16.09344 0 0
7:55 pm 19:55 Clear 45 7 21 -6 39 39 NNW 7 11 29.68 1005 10 16.09344 0 0
8:15 pm 20:15 Clear 45 7 21 -6 39 39 N 5 7 29.68 1005 10 16.09344 0 0
8:35 pm 20:35 Clear 43 6 21 -6 42 42 N 6 9 29.71 1006 10 16.09344 0 0
8:55 pm 20:55 Clear 43 6 21 -6 42 42 N 6 9 29.74 1007 10 16.09344 0 0
9:15 pm 21:15 Clear 43 6 21 -6 42 42 N 6 9 29.74 1007 10 16.09344 0 0
9:35 pm 21:35 Clear 41 5 21 -6 45 45 N 5 7 29.74 1007 10 16.09344 0 0
9:55 pm 21:55 Clear 41 5 23 -5 49 49 NNW 3 6 29.74 1007 10 16.09344 0 0
10:15 pm 22:15 Clear 39 4 23 -5 52 52 N 3 6 29.74 1007 10 16.09344 0 0
10:35 pm 22:35 Clear 37 3 23 -5 56 56 N 7 11 29.77 1008 10 16.09344 0 0
10:55 pm 22:55 Clear 37 3 23 -5 56 56 N 12 19 29.77 1008 10 16.09344 0 0
11:15 pm 23:15 Clear 39 4 25 -4 56 56 N 14 22 29.77 1008 10 16.09344 0 0
11:35 pm 23:35 Clear 41 5 27 -3 57 57 N 14 22 29.77 1008 10 16.09344 0 0
11:55 pm 23:55 Clear 39 4 27 -3 61 61 NNW 10 17 29.8 1009 10 16.09344 0 0

Powered by AerisWeather